This is the latest recevied weather packets stored in our database for station/object KF6GPE. If no packets are shown the sender has not sent any weather packets the latest 10 day(s).
| Time | Temp. | Humidity | Pressure | Rain* | Wind** | Luminosity | Snow |
|---|---|---|---|---|---|---|---|
| 1778094604 | 21.11° C | 62% | 992.4 hPa | 0 mm | - | 1092 W/m² | - |
| 1778094004 | 21.67° C | 61% | 992.4 hPa | 0 mm | - | 1087 W/m² | - |
| 1778093404 | 20.56° C | 64% | 992.4 hPa | 0 mm | - | 1029 W/m² | - |
| 1778092804 | 20.56° C | 64% | 992.5 hPa | 0 mm | - | 1028 W/m² | - |
| 1778092204 | 20.56° C | 65% | 992.6 hPa | 0 mm | - | 1091 W/m² | - |
| 1778091603 | 20° C | 67% | 992.7 hPa | 0 mm | - | 1071 W/m² | - |
| 1778091004 | 20° C | 67% | 992.7 hPa | 0 mm | - | 1052 W/m² | - |
| 1778090405 | 19.44° C | 69% | 992.8 hPa | 0 mm | - | 1080 W/m² | - |
| 1778089803 | 18.89° C | 69% | 992.8 hPa | 0 mm | - | 1077 W/m² | - |
| 1778089202 | 18.33° C | 72% | 992.9 hPa | 0 mm | - | 1074 W/m² | - |
| 1778088603 | 17.22° C | 71% | 992.9 hPa | 0 mm | - | 1071 W/m² | - |
| 1778088003 | 16.67° C | 75% | 993 hPa | 0 mm | - | 1069 W/m² | - |
| 1778087407 | 15.56° C | 77% | 993 hPa | 0 mm | - | 1008 W/m² | - |
| 1778086804 | 15.56° C | 78% | 993 hPa | 0 mm | - | 1003 W/m² | - |
| 1778086203 | 15.56° C | 78% | 993 hPa | 0 mm | - | 1003 W/m² | - |
| 1778085603 | 14.44° C | 80% | 993 hPa | 0 mm | - | 1004 W/m² | - |
| 1778085003 | 13.89° C | 84% | 993.1 hPa | 0 mm | - | 1008 W/m² | - |
| 1778084403 | 13.33° C | 86% | 993.2 hPa | 0 mm | - | 1005 W/m² | - |
| 1778083803 | 12.78° C | 90% | 993.1 hPa | 0 mm | - | 1003 W/m² | - |
| 1778083204 | 12.78° C | 89% | 993.2 hPa | 0 mm | - | 1003 W/m² | - |
| 1778082603 | 12.22° C | 93% | 993.1 hPa | 0 mm | - | 1002 W/m² | - |
| 1778082004 | 11.67° C | 94% | 993.2 hPa | 0 mm | - | 1002 W/m² | - |
| 1778081403 | 11.11° C | 96% | 993.1 hPa | 0 mm | - | 1002 W/m² | - |
| 1778080803 | 11.11° C | 96% | 993.1 hPa | 0 mm | - | 1002 W/m² | - |
| 1778080203 | 10.56° C | 96% | 993.2 hPa | 0 mm | - | 1002 W/m² | - |
* Rain latest hour (hover to see other rain measurements)
** Current wind speed in m/s (hover to see current wind gust speed)